Regional Weather Roundup
Issued by NWS Jackson, KY

Home | Current Version | Previous Version | Graphics & Text | Print | Product List | Glossary On
Versions: 1 2 3 4 5 6 7 8 9 10 11 12 13 14 15 16 17 18 19 20 21 22 23 24 25 26 27 28 29 30 31 32 33 34 35 36 37 38 39 40 41 42 43 44 45 46 47 48 49 50
000
ASUS43 KJKL 181211
RWRJKL

EAST KENTUCKY HOURLY WEATHER ROUNDUP
NATIONAL WEATHER SERVICE JACKSON KY
700 AM EST THU DEC 18 2014

NOTE: "FAIR" INDICATES FEW OR NO CLOUDS BELOW 12,000 FEET WITH
NO SIGNIFICANT WEATHER AND/OR OBSTRUCTIONS TO VISIBILITY.

* THESE REPORTS ARE NOT UNDER NWS QUALITY CONTROL AND MAY NOT
  REPORT WEATHER SUCH AS PRECIPITATION AND FOG.

KYZ079-080-083-085-087-088-110-112-115-119-120-181300
...EASTERN KENTUCKY...

CITY           SKY/WX    TMP DP  RH WIND       PRES   REMARKS
JACKSON        CLOUDY    28  23  81 CALM      30.20F
6HR MIN TEMP:  28; 6HR MAX TEMP:  29;

LONDON         CLOUDY    28  24  85 CALM      30.22S
6HR MIN TEMP:  25; 6HR MAX TEMP:  29;

SOMERSET*      MOCLDY    28  27  93 CALM      30.26R
MONTICELLO*    MOCLDY    30  27  89 CALM      30.27R
6HR MIN TEMP:  21; 6HR MAX TEMP:  30; 6HR PCP: TRACE;

MIDDLESBORO*   CLOUDY    30  28  93 CALM      30.23S
HARLAN APT*    CLOUDY    32  30  93 CALM      30.19F
HAZARD APT*    CLOUDY    30  27  86 CALM      30.21F
BLACK MTN*       N/A     27  16  63 CALM        N/A
PIKEVILLE APT* CLOUDY    28  23  80 CALM      30.20F
BIG SANDY*     CLOUDY    30  25  83 CALM      30.22S
6HR MIN TEMP:  30; 6HR MAX TEMP:  31;

MOREHEAD APT*  CLOUDY    28  21  74 N3        30.26R
$$

KYZ035-036-041-042-044-050-067-078-099-181300
...CENTRAL KENTUCKY...

CITY           SKY/WX    TMP DP  RH WIND       PRES   REMARKS
MT STERLING*   CLOUDY    28  23  80 NE3       30.26R
FLEMING/MASON* CLOUDY    25  19  80 NE5       30.26S WCI  19
DANVILLE*      CLOUDY    27  25  93 CALM      30.26R
RICHMOND*      MOCLDY    27  23  86 CALM      30.24R
LEXINGTON      CLOUDY    28  22  78 N5        30.26R WCI  23
6HR MIN TEMP:  28; 6HR MAX TEMP:  28;

FRANKFORT      CLOUDY    28  21  75 CALM      30.27R
6HR MIN TEMP:  28; 6HR MAX TEMP:  29;

$$

KYZ091>093-OHZ055-061-077-WVZ005-015-034-035-042-181300
...SOUTHERN OHIO/WEST VIRGINIA...

CITY           SKY/WX    TMP DP  RH WIND       PRES   REMARKS
COVINGTON      CLOUDY    26  17  68 CALM      30.26R
COLUMBUS       CLOUDY    27  18  69 NW7       30.24S WCI  19
DAYTON         CLOUDY    27  19  72 NW6       30.26R WCI  20
WILMINGTON     CLOUDY    25  17  72 CALM      30.25R
HUNTINGTON     CLOUDY    29  22  75 CALM      30.23F
CHARLESTON     CLOUDY    30  21  69 VRB5      30.24R WCI  25
PINEVILLE*     CLOUDY    32  28  83 MISG      30.23S
BECKLEY        CLOUDY    26  19  74 NW8       30.14R WCI  18
BLUEFIELD      CLOUDY    27  21  78 W7        30.13R WCI  19
$$

VAZ002-007-008-TNZ017-027-036-066-071-181300
...SOUTHWEST VIRGINIA/EAST TENNESSEE...

CITY           SKY/WX    TMP DP  RH WIND       PRES   REMARKS
WISE*          MOCLDY    28  25  86 CALM      30.16R
JONESVILLE*    CLOUDY    27  27 100 CALM      30.23S
ABINGDON*      PTCLDY    28  26  89 CALM      30.18R
BRISTOL        MOCLDY    26  26 100 CALM      30.20S FOG
KNOXVILLE      LGT RAIN  34  29  82 E3        30.23S
OAK RIDGE      LGT RAIN  35  29  78 CALM      30.24S
CROSSVILLE     CLOUDY    33  28  81 CALM      30.19S
NASHVILLE      LGT RAIN  33  31  92 CALM      30.26S
$$

...KEY TO REMARKS...
VSB - VISIBILITY IN MILES
WCI - WIND CHILL INDEX
HX  - HEAT INDEX

$$


USA.gov is the U.S. government's official web portal to all federal, state and local government web resources and services.